星链-32533 (STARLINK-32533)

导读 | 星芒AI

STARLINK-32533 是 SpaceX Starlink 项目中的一颗低轨通信卫星,属于第三代星链卫星(v1.5 或 v2 版本)。该卫星于2023年发射,部署在约550公里高度的近地轨道,旨在为全球用户提供高速互联网服务。它采用先进推进系统和激光通信技术,提升网络稳定性和数据传输效率。作为星链星座的一部分,STARLINK-32533 有助于扩大覆盖范围,支持偏远地区联网,并增强整体星座的冗余与可靠性。

基本信息
目录编号:
61706
目录名称:
STARLINK-32533
国际标识:
2024-195V
轨道中心:
EARTH
卫星名称:
星链-32533
卫星全名:
星链-32533 (STARLINK-32533)
卫星状态:
在轨 (已飞行416 天)
发射日期:
2024-10-30 UTC
国别 :
美国 (US)
星等 :
--
轨道信息
数据来源 国际轨道数据 AOE轨道数据
星历时间 2025-12-19T19:04:56+0800
23小时前
查看轨道信息
2025-12-19T16:00:00+0800
1天前
查看轨道信息
半长轴 6853.382km 6853.347km
偏心率 0.0001249 0.0001099
轨道倾角 53.160° 53.160°
近地点辐角 94.004° 87.105°
升交点赤经 167.623° 168.219°
平近点角 266.111° 285.159°
近地点 474.389km 474.458km
远地点 476.101km 475.966km
周期 94.106分钟 94.105分钟
每日圈数 15.301901 15.30202
详细信息
固有亮度:
5
最大亮度:
2.5
卫星平台:
Starlink V1.0
覆盖范围:
全球
运营商:
太空探索技术公司
运营商所在国:
美国
制造商(研发单位):
太空探索技术公司
制造商所在国:
美国
使用方式:
暂无
卫星简介
Starlink 计划是 SpaceX 推出的全球卫星互联网项目,通过发射低轨道卫星,为全球尤其是偏远地区提供高速、低延迟的互联网服务。自 2019 年起,Starlink 已部署数千颗卫星,旨在缩小全球数字鸿沟,推动互联网普及。该项目还为军事、航空等行业提供通信支持,带来广泛经济效益。
2D轨道图
3D轨道图
轨道高度分析图
轨道倾角分析图
轨道综合分析图
查看轨道综合分析图